Regional Weather Roundup
Issued by NWS

Home | Current Version | Previous Version | Graphics & Text | Print | Product List | Glossary On
Versions: 1 2 3 4 5 6 7 8 9 10 11 12 13 14 15 16 17 18 19 20 21 22 23 24 25 26 27 28 29 30 31 32 33 34 35 36 37 38 39 40 41 42 43 44 45 46 47 48 49 50
000
ASUS43 KFSD 250002
RWRSD

WEATHER ROUNDUP FOR SOUTH DAKOTA
NATIONAL WEATHER SERVICE SIOUX FALLS SD
700 PM CDT SUN SEP 24 2017

NOTE: "FAIR" INDICATES FEW OR NO CLOUDS BELOW 12,000 FEET WITH NO
SIGNIFICANT WEATHER AND/OR OBSTRUCTIONS TO VISIBILITY.


SDZ001>005-009-010-012>017-250100-
NORTHWEST AND NORTH CENTRAL SOUTH DAKOTA

CITY           SKY/WX    TMP DP  RH WIND       PRES   REMARKS
BUFFALO          N/A     48  41  76 NW10      30.04R
FAITH            N/A     48  47  96 N15       30.07S
MOBRIDGE       CLOUDY    53  48  83 N12       30.02R
$$

SDZ012>016-024>037-041>051-057-063-072>074-250100-
SOUTHWEST AND SOUTH CENTRAL SOUTH DAKOTA

CITY           SKY/WX    TMP DP  RH WIND       PRES   REMARKS
RAPID CTY ARPT CLOUDY    48  41  76 N13       30.09R
PIERRE         CLOUDY    54  46  74 N12       30.03R
CUSTER         CLOUDY    40  38  93 NE7       30.08R FOG
ELLSWORTH AFB  CLOUDY    49  42  77 N10       30.09R
PHILIP         CLOUDY    53  46  77 N9        30.06R
PINE RIDGE     CLOUDY    50  44  80 NE8       30.07R
SPEARFISH      MOCLDY    45  45 100 W5        30.10S
WINNER         CLOUDY    55  49  80 N10       30.03R
$$

SDZ004>011-016>023-039-040-250100-
NORTHEAST SOUTH DAKOTA

CITY           SKY/WX    TMP DP  RH WIND       PRES   REMARKS
ABERDEEN       CLOUDY    54  50  86 N14       29.99R
WATERTOWN      CLOUDY    54  52  93 NW14      29.96R
BROOKINGS      CLOUDY    57  54  89 W10       29.97R
SISSETON         N/A     56  53  90 NW15      29.93R
$$

SDZ017-020-022-023-036>040-048>070-250100-
SOUTHEAST SOUTH DAKOTA

CITY           SKY/WX    TMP DP  RH WIND       PRES   REMARKS
SIOUX FALLS    CLOUDY    59  57  93 NW10      29.95R
HURON          CLOUDY    55  52  89 NW10      29.99R
CHAMBERLAIN    CLOUDY    56  52  85 N10       30.03R
MITCHELL       CLOUDY    57  53  86 NW9       29.99R
YANKTON        CLOUDY    58  54  86 NW10      29.97R
$$

ABBREVIATIONS USED IN REMARKS
   TC - TEMPERATURE IN CELSIUS
  WCI - WIND CHILL INDEX
   HX - HEAT INDEX
  VSB - VISIBILITY




USA.gov is the U.S. government's official web portal to all federal, state and local government web resources and services.